Volver al catálogo

BREEZE-M DEB

TANK

ActivoHEO
NORAD 37935·DEBRIS·🇷🇺 Russia

Lanzado Nov 25, 2011 desde Baikonur Cosmodrome

Loading…

Próximos Pases (próximas 24 horas)

TLE

ActualizadoSource: Space-Track

Época: Sep 13, 2026, 20:49 UTC

1 37935U 11069C   26256.86802699  .00000963  00000-0  16971-2 0  9997
2 37935  49.0964  38.1537 7188691 185.2618 158.0708  2.33925317123144

Sigue BREEZE-M DEB en tiempo real con AllMySat

Download on the App Store